User: anonymous
Location: Irma
(52.9170°N, 111.2330°W)
Time: 12:05:10
(UTC-06:00)
Language:

Meteor 1-24 Rocket - Orbit

View from above orbital plane
View from above orbital plane
View from above satellite
View from above satellite

Ground track
Ground track

The orbit data is extracted from the following two-line orbital elements,

1 08800U 76032B   14203.46098684  .00000122  00000-0  60381-4 0   661
2 08800 081.2523 169.1374 0092965 308.9119 171.0273 14.09959269968707
Epoch (UTC): 22 July 2014 11:03:49
Eccentricity: 0.0092965
inclination: 81.2523°
perigee height: 792 km
apogee height: 927 km
right ascension of ascending node: 169.1374°
argument of perigee: 308.9119°
revolutions per day: 14.09959269
mean anomaly at epoch: 171.0273°
orbit number at epoch: 96870

The dashed part of the orbit path shows where the satellite is in the earth's shadow,  

DLR